Sokodé Airport

Jump to: basic info | weather | comments

Related pages: nearby airports | nearby navaids | notams | map

Basic information (top)

Codes: DXSK
Location: lon 8.983000, lat 1.150000, elev 1,214 ft / 370 m msl
Status: small_airport
Scheduled airline service: no
Links: Wikipedia Mobile

Weather (top)

Current conditions (rec'd 2015/03/31 09:00Z):

DXSK 310900Z 08008KT 9999 BKN013 BKN120 26/22 Q////

Airport forecast for Niamtougou International Airport 47nm (87km) N (rec'd 2015/03/31 06:54Z):

TAF TAF DXNG 310538Z 3106/0106 18006KT 9999 FEW013

Latest comments (top)

No comments yet for Sokodé Airport

More... (top)

See also NOTAMs and nearby airports and navaids, or visit the Sokodé Airport page at the main OurAirports website..